This demonstration page uses our WeatherBlox Daily Observations layout. Learn more.

Left ArrowRight Arrow

30.21309, -93.2044

Hourly Observations for August 5, 2020

Temp ( °F °C ) Dew Point ( °F °C ) Humidity (%) Winds ( mph kmh ) Pressure ( in mb ) Visibility ( mi km ) Precip ( " mm )
12:15 am 00:15 Clear 78 25.5 74 23.4 88 88 Calm 29.99 1016 10 16 0.00 0.00
12:35 am 00:35 Clear 75 24 73 22.8 93 93 Calm 29.98 1015 10 16 0.00 0.00
12:55 am 00:55 Clear 75 23.9 73 23 95 95 Calm 29.99 1016 10 16 0.00 0.00
1:15 am 01:15 Clear 75 24.1 74 23.1 94 94 Calm 29.98 1015 10 16 0.00 0.00
1:35 am 01:35 Clear 75 23.8 73 23 95 95 N 3 6 29.98 1015 10 16 0.00 0.00
1:55 am 01:55 Clear 76 24.2 73 23 93 93 Calm 29.98 1015 10 16 0.00 0.00
2:15 am 02:15 Clear 76 24.2 73 22.9 92 92 NNW 5 7 29.98 1015 10 16 0.00 0.00
2:35 am 02:35 Clear 76 24.2 73 22.9 92 92 Calm 29.98 1015 10 16 0.00 0.00
2:55 am 02:55 Clear 76 24.2 73 22.9 92 92 Calm 29.98 1015 10 16 0.00 0.00
3:15 am 03:15 Clear 76 24.2 73 22.8 92 92 Calm 29.98 1015 10 16 0.00 0.00
3:35 am 03:35 Clear 76 24.2 73 22.9 92 92 NW 3 6 29.98 1015 10 16 0.00 0.00
3:55 am 03:55 Clear 76 24.2 73 22.9 92 92 NW 3 6 29.98 1015 10 16 0.00 0.00
4:15 am 04:15 Clear 76 24.3 73 22.9 92 92 NW 3 6 29.98 1015 10 16 0.00 0.00
4:35 am 04:35 Clear 76 24.2 73 22.8 92 92 WNW 3 6 29.97 1015 10 16 0.00 0.00
4:55 am 04:55 Clear 75 24 73 22.7 92 92 NW 5 7 29.97 1015 10 16 0.00 0.00
5:15 am 05:15 Clear 75 23.8 73 22.6 93 93 NNW 3 6 29.97 1015 10 16 0.00 0.00
5:35 am 05:35 Clear 75 23.7 73 22.5 93 93 Calm 29.97 1015 10 16 0.00 0.00
6:00 am 06:00 Mostly Clear 75 24 73 23 94 94 Calm 29.97 1015 10 16 0.00 0.00
6:53 am 06:53 Mostly Sunny 73 23 73 23 100 100 Calm 29.98 1015 10 16 0.00 0.00
7:55 am 07:55 Mostly Sunny 77 25 73 23 89 89 Calm 30.00 1016 10 16 0.00 0.00
8:50 am 08:50 Mostly Sunny 81 27 73 23 79 79 Calm 30.01 1016 10 16 0.00 0.00
9:50 am 09:50 Partly Cloudy 84 29 73 23 70 70 Calm 30.02 1017 10 16 0.00 0.00
10:50 am 10:50 Mostly Sunny 88 31 73 23 62 62 Calm 30.03 1017 10 16 0.00 0.00
11:50 am 11:50 Mostly Sunny 88 31 73 23 62 62 VRB 7 11 30.02 1017 10 16 0.00 0.00
12:55 pm 12:55 Partly Cloudy 90 32 73 23 59 59 Calm 30.02 1017 10 16 0.00 0.00
1:50 pm 13:50 Partly Cloudy 91 33 73 23 56 56 Calm 30.00 1016 10 16 0.00 0.00
3:50 pm 15:50 Mostly Cloudy 93 34 72 22 49 49 WNW 9 15 29.94 1014 10 16 0.00 0.00
4:50 pm 16:50 Cloudy with Thunderstorms 84 29 72 22 66 66 N 20 31 29.96 1015 7 11 0.00 0.00
5:45 pm 17:45 Cloudy with Thunderstorms 75 24 73 23 94 94 NNW 5 7 29.96 1015 10 16 0.00 0.00
6:45 pm 18:45 Cloudy with Thunderstorms 77 25 73 23 89 89 WSW 5 7 29.97 1015 10 16 0.00 0.00
7:50 pm 19:50 Mostly Cloudy 75 24 73 23 94 94 SW 6 9 29.98 1015 10 16 0.00 0.00
8:45 pm 20:45 Mostly Clear 75 24 73 23 94 94 ESE 6 9 29.97 1015 10 16 0.00 0.00
9:45 pm 21:45 Mostly Clear 75 24 73 23 94 94 Calm 30.00 1016 10 16 0.00 0.00
10:15 pm 22:15 Clear 75 24.1 74 23.3 95 95 NNW 3 6 29.99 1016 10 16 0.00 0.00
10:35 pm 22:35 Clear 75 24.1 74 23.5 96 96 NNW 5 7 30.00 1016 10 16 0.00 0.00
10:55 pm 22:55 Clear 75 24.1 74 23.6 97 97 Calm 29.99 1016 10 16 0.00 0.00
11:15 pm 23:15 Clear 76 24.2 74 23.6 96 96 Calm 29.98 1015 7 11 0.00 0.00
11:35 pm 23:35 Clear 76 24.2 75 23.7 97 97 Calm 29.99 1016 7 11 0.00 0.00
11:55 pm 23:55 Clear 76 24.3 75 23.8 97 97 Calm 29.99 1016 10 16 0.00 0.00

Powered by AerisWeather